TimeEDT,TemperatureF,Dew PointF,Humidity,Sea Level PressureIn,VisibilityMPH,Wind Direction,Wind SpeedMPH,Gust SpeedMPH,PrecipitationIn,Events,Conditions,WindDirDegrees,DateUTC
12:15 AM,67.3,66.6,98,29.92,7.0,Calm,Calm,-,N/A,,Scattered Clouds,0,2013-06-28 04:15:00
12:35 AM,67.3,66.4,97,29.92,7.0,Calm,Calm,-,N/A,,Scattered Clouds,0,2013-06-28 04:35:00
12:55 AM,66.4,65.8,98,29.91,7.0,Calm,Calm,-,N/A,,Scattered Clouds,0,2013-06-28 04:55:00
1:15 AM,66.6,66.2,99,29.91,7.0,Calm,Calm,-,N/A,,Clear,0,2013-06-28 05:15:00
1:35 AM,66.4,66.0,99,29.91,5.0,Calm,Calm,-,N/A,,Scattered Clouds,0,2013-06-28 05:35:00
1:55 AM,66.2,65.3,97,29.90,10.0,Calm,Calm,-,N/A,,Scattered Clouds,0,2013-06-28 05:55:00
2:15 AM,65.7,65.3,99,29.90,5.0,Calm,Calm,-,N/A,,Scattered Clouds,0,2013-06-28 06:15:00
2:35 AM,66.9,66.7,99,29.89,0.5,Calm,Calm,-,N/A,Fog,Fog,0,2013-06-28 06:35:00
2:55 AM,66.6,66.6,100,29.89,0.5,Calm,Calm,-,N/A,Fog,Fog,0,2013-06-28 06:55:00
3:15 AM,66.2,65.8,99,29.89,0.8,Calm,Calm,-,N/A,,Overcast,0,2013-06-28 07:15:00
3:35 AM,66.2,66.2,100,29.90,3.0,Calm,Calm,-,N/A,,Overcast,0,2013-06-28 07:35:00
3:55 AM,65.8,65.7,99,29.89,1.8,Calm,Calm,-,N/A,,Overcast,0,2013-06-28 07:55:00
4:15 AM,66.2,65.8,99,29.90,1.0,Calm,Calm,-,N/A,,Overcast,0,2013-06-28 08:15:00
4:35 AM,65.5,65.3,99,29.89,1.2,Calm,Calm,-,N/A,,Overcast,0,2013-06-28 08:35:00
4:55 AM,66.0,66.0,100,29.89,0.2,NNE,3.5,-,N/A,Fog,Fog,20,2013-06-28 08:55:00
5:15 AM,66.0,66.0,100,29.89,0.2,ENE,3.5,-,N/A,Fog,Fog,60,2013-06-28 09:15:00
5:35 AM,65.5,65.3,99,29.89,0.5,Calm,Calm,-,N/A,Fog,Fog,0,2013-06-28 09:35:00
5:55 AM,65.7,65.7,100,29.88,0.2,East,3.5,-,N/A,Fog,Fog,90,2013-06-28 09:55:00
6:15 AM,65.3,64.9,99,29.89,0.8,Calm,Calm,-,N/A,,Overcast,0,2013-06-28 10:15:00
6:35 AM,65.3,65.1,99,29.89,0.2,Calm,Calm,-,N/A,Fog,Fog,0,2013-06-28 10:35:00
6:55 AM,64.4,64.2,99,29.89,0.2,Calm,Calm,-,N/A,Fog,Fog,0,2013-06-28 10:55:00
7:15 AM,64.4,64.4,100,29.89,1.2,Calm,Calm,-,N/A,,Overcast,0,2013-06-28 11:15:00
7:35 AM,65.3,65.1,99,29.89,4.0,Calm,Calm,-,N/A,,Overcast,0,2013-06-28 11:35:00
7:55 AM,65.5,65.5,100,29.89,0.5,Calm,Calm,-,N/A,Fog,Fog,0,2013-06-28 11:55:00
8:55 AM,66.9,66.6,99,29.89,0.2,Calm,Calm,-,N/A,Fog,Fog,0,2013-06-28 12:55:00
9:15 AM,68.4,67.3,96,29.89,5.0,SSW,3.5,-,N/A,,Overcast,200,2013-06-28 13:15:00
9:35 AM,69.6,68.0,95,29.88,4.0,Calm,Calm,-,N/A,,Mostly Cloudy,0,2013-06-28 13:35:00
9:55 AM,71.6,68.9,91,29.88,10.0,WSW,4.6,-,N/A,,Scattered Clouds,240,2013-06-28 13:55:00
10:15 AM,73.9,69.8,87,29.87,10.0,SSW,3.5,-,N/A,,Clear,200,2013-06-28 14:15:00
10:35 AM,75.0,69.4,83,29.86,10.0,Calm,Calm,-,N/A,,Clear,0,2013-06-28 14:35:00
10:55 AM,76.1,70.0,81,29.85,10.0,Calm,Calm,-,N/A,,Clear,0,2013-06-28 14:55:00
11:15 AM,77.9,71.2,80,29.86,10.0,WSW,4.6,-,N/A,,Clear,240,2013-06-28 15:15:00
11:35 AM,81.0,70.3,70,29.85,10.0,WSW,8.1,-,N/A,,Clear,240,2013-06-28 15:35:00
11:55 AM,81.5,70.0,68,29.85,10.0,West,6.9,-,N/A,,Clear,260,2013-06-28 15:55:00
12:15 PM,82.6,70.7,67,29.85,10.0,WSW,5.8,-,N/A,,Clear,240,2013-06-28 16:15:00
12:35 PM,82.4,69.4,65,29.84,10.0,SW,6.9,-,N/A,,Clear,230,2013-06-28 16:35:00
12:55 PM,84.4,69.3,60,29.84,10.0,WSW,11.5,-,N/A,,Clear,250,2013-06-28 16:55:00
1:15 PM,84.6,67.8,57,29.83,10.0,WSW,10.4,-,N/A,,Clear,250,2013-06-28 17:15:00
1:35 PM,84.9,68.2,57,29.82,10.0,WSW,9.2,-,N/A,,Clear,240,2013-06-28 17:35:00
1:55 PM,85.8,68.9,57,29.81,10.0,WSW,9.2,-,N/A,,Clear,240,2013-06-28 17:55:00
2:15 PM,86.0,68.4,55,29.80,10.0,WSW,6.9,-,N/A,,Clear,240,2013-06-28 18:15:00
2:35 PM,86.5,68.9,56,29.78,10.0,SW,9.2,-,N/A,,Clear,220,2013-06-28 18:35:00
2:55 PM,87.1,67.8,53,29.76,10.0,WSW,9.2,-,N/A,,Clear,250,2013-06-28 18:55:00
3:15 PM,87.6,68.5,53,29.75,10.0,SW,9.2,-,N/A,,Clear,230,2013-06-28 19:15:00
3:35 PM,87.1,67.6,52,29.74,10.0,SW,6.9,-,N/A,,Scattered Clouds,230,2013-06-28 19:35:00
3:55 PM,83.3,68.7,61,29.74,10.0,SW,5.8,-,N/A,,Clear,230,2013-06-28 19:55:00
4:15 PM,80.6,67.6,65,29.74,10.0,WSW,5.8,-,N/A,,Clear,240,2013-06-28 20:15:00
4:35 PM,79.0,68.9,71,29.74,10.0,WNW,16.1,32.2,N/A,,Scattered Clouds,300,2013-06-28 20:35:00
4:55 PM,70.2,67.6,92,29.76,10.0,SSE,5.8,-,N/A,Rain,Light Rain,160,2013-06-28 20:55:00
5:15 PM,71.6,68.9,91,29.77,10.0,Calm,Calm,-,N/A,Rain,Light Rain,0,2013-06-28 21:15:00
5:35 PM,72.7,68.7,87,29.77,10.0,Calm,Calm,-,N/A,,Scattered Clouds,0,2013-06-28 21:35:00
5:55 PM,73.6,68.5,84,29.75,10.0,Calm,Calm,-,N/A,,Clear,0,2013-06-28 21:55:00
6:15 PM,73.8,68.0,82,29.76,10.0,North,3.5,-,N/A,,Scattered Clouds,350,2013-06-28 22:15:00
6:35 PM,73.6,68.0,83,29.74,10.0,Calm,Calm,-,N/A,,Overcast,0,2013-06-28 22:35:00
6:55 PM,74.3,67.5,79,29.73,10.0,ENE,3.5,-,N/A,,Mostly Cloudy,70,2013-06-28 22:55:00
7:15 PM,73.9,68.7,84,29.74,10.0,Calm,Calm,-,N/A,,Mostly Cloudy,0,2013-06-28 23:15:00
7:35 PM,73.4,69.6,88,29.75,10.0,Calm,Calm,-,N/A,,Overcast,0,2013-06-28 23:35:00
7:55 PM,72.9,70.2,91,29.76,10.0,NNE,3.5,-,N/A,,Mostly Cloudy,30,2013-06-28 23:55:00
8:15 PM,72.7,69.8,91,29.75,10.0,Calm,Calm,-,N/A,,Mostly Cloudy,0,2013-06-29 00:15:00
8:35 PM,72.1,70.7,95,29.76,10.0,Calm,Calm,-,N/A,,Overcast,0,2013-06-29 00:35:00
8:55 PM,72.1,70.3,94,29.77,10.0,Calm,Calm,-,N/A,,Overcast,0,2013-06-29 00:55:00
9:15 PM,71.8,70.0,94,29.77,10.0,Calm,Calm,-,N/A,,Overcast,0,2013-06-29 01:15:00
9:35 PM,71.2,70.2,96,29.76,10.0,Calm,Calm,-,N/A,Rain,Light Rain,0,2013-06-29 01:35:00
9:55 PM,71.1,69.8,96,29.77,10.0,Calm,Calm,-,N/A,Rain,Light Rain,0,2013-06-29 01:55:00
10:15 PM,70.9,69.8,96,29.77,10.0,NNW,4.6,-,N/A,Rain,Light Rain,330,2013-06-29 02:15:00
10:35 PM,70.7,69.8,97,29.77,10.0,Calm,Calm,-,N/A,,Scattered Clouds,0,2013-06-29 02:35:00
10:55 PM,70.5,69.4,96,29.78,10.0,Calm,Calm,-,N/A,,Mostly Cloudy,0,2013-06-29 02:55:00
11:15 PM,70.0,69.4,98,29.78,10.0,Calm,Calm,-,N/A,,Overcast,0,2013-06-29 03:15:00
11:35 PM,69.8,68.9,97,29.77,10.0,Calm,Calm,-,N/A,,Mostly Cloudy,0,2013-06-29 03:35:00
11:55 PM,69.3,68.5,98,29.77,10.0,Calm,Calm,-,N/A,,Overcast,0,2013-06-29 03:55:00